Regional Weather Roundup
Issued by NWS Goodland, KS

Home | Current Version | Previous Version | Graphics & Text | Print | Product List | Glossary On
Versions: 1 2 3 4 5 6 7 8 9 10 11 12 13 14 15 16 17 18 19 20 21 22 23 24 25 26 27 28 29 30 31 32 33 34 35 36 37 38 39 40 41 42 43 44 45 46 47 48 49 50
000
ASUS43 KGLD 271859
RWRGLD

GOODLAND FORECAST AREA HOURLY WEATHER ROUNDUP
NATIONAL WEATHER SERVICE GOODLAND KS
100 PM MDT FRI MAR 27 2015

...OFFICIAL OBSERVATIONS...

CITY           SKY/WX    TMP DP  RH WIND       PRES   REMARKS
GOODLAND KS    SUNNY     62  36  37 NW8       30.09F
HILL CITY KS   PTSUNNY   48  29  47 S8        30.18F
IMPERIAL NEB     N/A     59  36  42 W9        30.06F
MCCOOK NEB     PTSUNNY   50  34  54 S16       30.11F
AKRON CO       SUNNY     63  33  32 W15G22    30.10F
BURLINGTON CO  MOSUNNY   65  33  30 NW14G26   30.11F
LIMON CO       SUNNY     62  31  31 NW12G20   30.16F
$$

...UNOFFICIAL OBSERVATIONS...

CITY           SKY/WX    TMP DP  RH WIND       PRES   REMARKS
COLBY KS       SUNNY     57  37  47 SW14G20   30.12F
GOVE KS          N/A     44  32  63 MISG        N/A
LENORA KS        N/A     41  32  70 MISG        N/A
NORTON KS      CLOUDY    46  28  49 S10G18    30.15F
SHARON SPRINGS   N/A     60  36  40 SW18        N/A
TRIBUNE KS     SUNNY     59  39  47 SW15G28   30.15F
KIT CARSON CO    N/A     59  35  41 MISG        N/A
YUMA CO          N/A     63  33  33 N14G23      N/A
$$



USA.gov is the U.S. government's official web portal to all federal, state and local government web resources and services.